Regional Weather Roundup
Issued by NWS

Home | Current Version | Previous Version | Text Only | Print | Product List | Glossary Off
Versions: 1 2 3 4 5 6 7 8 9 10 11 12 13 14 15 16 17 18 19 20 21 22 23 24 25 26 27 28 29 30 31 32 33 34 35 36 37 38 39 40 41 42 43 44 45 46 47 48 49 50

000
ASUS45 KABQ 031601
RWRNM
NEW MEXICO REGIONAL WEATHER ROUNDUP
NATIONAL WEATHER SERVICE ALBUQUERQUE NM
900 AM MST SAT DEC 03 2016

NOTE: "FAIR" MEANS FEW OR NO CLOUDS BELOW 12,000 FEET AGL WITH NO
       SIGNIFICANT WEATHER OR OBSTRUCTIONS TO VISION.

      THIS PRODUCT IS RELEASED AS TWO VERSIONS.  ONE VERSION NEAR
      THE TOP OF THE HOUR CONTAINING PRELIMINARY DATA FROM ALBUQUERQUE
      AND OTHER STATIONS.  A FINAL VERSION WITH ADDITIONAL DATA IS
      ISSUED ABOUT 10 MINUTES AFTER THE HOUR.

NMZ501-503-504-510>518-031700-
NORTHWEST PLATEAU/NORTHCENTRAL MOUNTAINS

CITY           SKY/WX    TMP DP  RH WIND       PRES   REMARKS
FARMINGTON     FAIR      27  25  92 CALM      30.16R
LOS ALAMOS     PTSUNNY   28  23  83 NE3       30.11R
SANTA FE       FAIR      31  24  75 N10       30.10R WCI  22
TAOS           FAIR      25  12  58 N6        30.12S WCI  18
ANGEL FIRE     FOG       17  16  94 CALM      30.10S VSB 3/4

$$
NMZ402-403-502-505>509-031700-
WESTCENTRAL MOUNTAINS/SOUTHWEST MOUNTAINS

CITY           SKY/WX    TMP DP  RH WIND       PRES   REMARKS
GALLUP         CLOUDY    29  24  82 NE12      30.15R WCI  19
GRANTS         PTSUNNY   26  24  91 N13       30.14S WCI  15
SILVER CITY    LGT RAIN  38  36  91 SE3       29.99R

$$
NMZ407-409-411-412-031700-
SOUTHERN DESERTS

CITY           SKY/WX    TMP DP  RH WIND       PRES   REMARKS
DEMING         LGT RAIN  38  34  85 NE25G36   29.99S WCI  27
LAS CRUCES     CLOUDY    37  32  82 N18G24    30.01R WCI  27
T OR C         CLOUDY    39  26  59 NE17G25   30.05R WCI  30

$$
NMZ519>523-031700-
CENTRAL VALLEYS/CENTRAL HIGHLANDS

CITY           SKY/WX    TMP DP  RH WIND       PRES   REMARKS
ALBUQUERQUE    PTSUNNY   35  31  85 N8        30.12R WCI  29
DOUBLE EAGLE   PTSUNNY   32  27  80 N13       30.12R WCI  22
MORIARTY ARPT  FAIR      30  23  75 NW3       30.12R
CLINES CORNERS CLOUDY    26  21  81 E5        30.09R WCI  20
BELEN          FAIR      33  32  94 N6        30.11S WCI  28
SOCORRO        FAIR      37  31  79 N15       30.11R WCI  28

$$
NMZ524>526-539-540-031700-
SOUTHCENTRAL MOUNTAINS

CITY           SKY/WX    TMP DP  RH WIND       PRES   REMARKS
RUIDOSO        LGT SNOW  27  25  93 CALM      30.10R

$$
NMZ527>531-031700-
NORTHEAST HIGHLANDS/NORTHEAST PLAINS

CITY           SKY/WX    TMP DP  RH WIND       PRES   REMARKS
LAS VEGAS      FAIR      28  21  75 CALM      30.07S
RATON          FAIR      24  19  81 N3        30.06R
CLAYTON        CLOUDY    31  30  96 S5        30.10S WCI  26

$$
NMZ532>537-031700-
EASTCENTRAL PLAINS

CITY           SKY/WX    TMP DP  RH WIND       PRES   REMARKS
TUCUMCARI      LGT SNOW  33  31  92 E3        30.13S FOG
CANNON AFB     NOT AVBL
CLOVIS AIRPORT CLOUDY    34  28  80 N10       30.14R VSB 3/4 WCI  26

$$
NMZ028-029-538-031700-
SOUTHEAST PLAINS

CITY           SKY/WX    TMP DP  RH WIND       PRES   REMARKS
ROSWELL        FLURRIES  35  32  88 N14       30.13S WCI  26
ARTESIA        DRIZZLE   36  36 100 N16G23    30.14R WCI  26
CARLSBAD       MIX PCPN  36  36 100 NW17      30.10S FOG     WCI  26


$$



USA.gov is the U.S. government's official web portal to all federal, state and local government web resources and services.